GFSNIL_sfc_dewp_132.txt.gz
Dewpoint
73 75 67 69 66 66 65 66 70 72 72 73 73 71 74 71 69 71 70 73 74 69
72 71 69 72 72 68 71 67 71 72 72 72 73 73 73 69 72 72 72 71 73 70
71 71 72 72 72 71 71 72 72 73 72 72 73 73 73 70 73 73 70 68 71 73
69 69 72 74 73 74 74 73 72 72 72 73 72 74 74 73 71 72 72 72 71 73
69 70 69 71 71 73 75 72 73 72 72 72 72 73 73 72 71 72 71 71 72 71
69 69 70 70 71 72 73 73 73 74 74 73 73 73 73 73 72 72 71 71 71 71
70 69 70 70 71 71 73 73 73 73 73 73 73 74 74 73 73 72 71 72 72 71
72 72 72 72 72 72 73 73 74 73 73 73 72 69 73 73 73 73 72 72 72 72
73 73 74 74 73 74 73 73 74 73 72 73 69 67 68 72 72 73 73 72 72 72
73 73 73 74 75 74 73 73 73 73 73 72 73 64 64 66 70 71 73 73 75 72
72 72 73 74 74 72 76 75 73 72 73 73 73 61 60 61 70 72 73 73 73 72
71 72 72 72 73 74 74 73 74 72 72 72 72 61 60 63 69 70 71 71 71 70
71 70 70 71 72 68 67 65 65 67 68 61 68 58 58 61 69 69 67 66 64 55
71 70 71 70 69 68 65 62 62 62 60 60 62 63 55 57 66 67 64 60 59 56

GFSNIL_sfc_dewp_135.txt.gz
Dewpoint
72 68 68 70 72 64 72 65 74 73 71 72 72 72 73 71 69 73 70 73 75 68
74 71 70 73 71 67 74 70 71 71 71 71 72 72 73 70 71 72 72 71 73 71
71 72 72 72 73 71 70 72 73 72 72 72 72 73 74 72 73 72 69 66 73 73
68 69 72 71 71 72 72 72 72 72 72 72 72 73 75 75 73 73 73 73 73 72
68 68 68 71 71 75 73 72 73 73 73 72 72 72 73 72 70 72 70 71 73 71
67 67 68 71 70 74 75 74 70 72 73 73 72 73 73 74 73 72 72 71 73 71
68 68 67 70 71 71 74 74 73 73 75 75 73 72 72 74 74 73 71 71 72 72
73 73 73 74 74 73 73 73 73 73 75 75 73 70 75 74 74 75 72 73 72 71
73 74 75 75 75 75 74 74 74 73 73 73 69 68 70 72 73 75 75 72 74 75
73 74 74 75 75 75 74 76 76 73 72 73 74 66 67 68 70 70 72 73 75 74
72 72 73 73 73 76 76 76 73 75 74 75 73 64 64 63 71 72 72 72 72 73
72 71 72 73 74 74 76 75 73 74 73 74 73 61 61 64 70 70 72 72 72 70
71 71 71 71 72 73 75 74 74 72 73 63 68 58 58 62 67 68 72 71 70 57
71 70 71 71 71 72 71 71 70 68 66 64 60 60 57 57 66 67 70 66 65 59

GFSNIL_sfc_dewp_138.txt.gz
Dewpoint
75 75 72 73 74 72 71 69 74 75 76 76 77 76 77 77 75 75 75 76 78 75
75 74 72 74 78 73 76 74 75 75 75 76 75 74 76 75 75 75 76 75 76 76
72 74 76 77 74 74 75 75 72 74 73 77 76 75 76 75 75 75 75 72 74 76
72 73 75 75 72 71 76 76 76 74 72 75 74 76 76 76 76 75 75 75 75 74
72 72 73 73 75 76 76 76 76 75 74 74 75 75 76 74 73 73 73 74 74 75
70 71 71 73 73 74 75 76 74 75 76 76 76 76 76 76 74 75 74 74 73 73
71 70 70 74 73 73 75 75 75 76 76 76 75 75 75 75 75 75 73 74 73 73
72 73 74 75 76 75 75 75 75 75 75 76 75 71 74 74 75 75 73 74 75 73
74 75 76 77 77 76 76 76 77 75 75 74 72 69 70 73 74 74 74 73 73 74
74 75 75 75 75 75 75 76 75 74 73 74 75 67 69 70 73 75 75 75 75 74
72 74 74 74 74 74 74 75 74 74 74 74 74 65 67 68 73 73 73 74 74 74
72 72 73 73 74 75 75 75 74 74 73 73 70 63 61 65 73 73 72 73 66 68
70 70 71 72 72 73 73 74 74 74 73 66 64 59 60 63 69 70 72 73 61 57
69 69 69 67 66 66 66 68 65 67 66 64 61 60 57 57 66 68 71 67 59 56

GFSNIL_sfc_dewp_141.txt.gz
Dewpoint
70 71 70 69 70 69 69 68 69 72 72 72 73 72 70 72 71 72 71 70 72 71
71 70 67 65 71 71 70 69 74 73 72 72 71 73 71 70 71 71 71 71 71 72
71 71 71 71 69 71 71 72 72 70 70 72 72 72 73 71 71 71 71 71 70 69
70 71 72 71 70 68 70 71 71 71 70 71 72 71 72 70 72 70 70 70 69 71
70 71 71 71 71 70 69 72 72 71 69 70 71 71 71 71 70 71 70 70 70 70
70 70 71 71 72 72 72 72 72 72 71 71 72 72 72 72 72 72 72 72 71 70
69 69 69 70 70 72 72 72 72 72 72 72 72 72 72 73 72 72 72 72 72 71
68 68 70 72 71 72 72 72 72 72 72 73 73 73 72 73 73 72 72 72 72 71
70 71 70 71 72 71 71 72 72 72 72 71 72 70 69 70 71 72 72 71 71 71
71 70 70 70 70 71 71 71 71 72 72 72 72 66 67 69 71 71 71 71 72 72
70 69 70 69 70 70 70 70 71 72 71 70 70 66 66 67 68 70 70 70 70 70
71 70 69 68 69 69 68 69 69 70 70 70 67 62 63 65 69 70 69 67 61 66
68 68 68 69 69 68 69 68 68 66 65 64 62 59 59 60 67 67 67 61 57 59
68 68 66 64 64 64 63 63 63 62 61 61 59 59 56 57 62 66 65 63 59 55

GFSNIL_sfc_dewp_144.txt.gz
Dewpoint
69 68 69 69 68 68 69 68 68 70 71 70 71 71 70 71 70 71 70 70 70 71
70 70 67 68 70 69 69 68 70 70 72 71 71 72 70 69 69 70 70 70 70 70
70 70 69 67 69 69 70 70 71 72 72 71 71 71 71 70 70 70 70 70 69 69
69 70 70 70 70 70 70 71 71 70 70 71 71 72 71 71 70 70 69 70 69 69
69 70 70 71 70 69 67 71 70 70 69 70 70 70 70 70 70 70 69 69 69 69
68 69 70 70 70 69 68 68 71 70 70 68 69 70 71 70 70 70 71 71 70 70
68 68 70 70 70 70 71 71 71 71 71 70 70 71 71 72 72 71 71 72 72 71
67 68 69 70 70 71 71 71 71 71 71 72 72 72 71 72 72 71 71 72 72 72
64 65 68 70 71 71 71 71 71 71 71 71 71 69 68 71 71 71 71 71 71 71
65 64 67 70 69 70 69 70 70 70 71 71 71 66 66 69 69 70 70 70 70 70
65 65 67 69 68 69 69 70 69 70 70 70 70 64 64 67 68 69 70 70 70 70
66 67 67 68 67 67 68 68 69 69 69 69 63 60 60 63 68 69 69 67 63 67
68 68 68 68 68 68 68 68 66 65 65 62 61 59 58 61 65 66 66 60 59 59
67 67 66 65 65 65 65 65 63 62 62 61 60 58 57 58 64 65 65 61 58 56

GFSNIL_sfc_dewp_147.txt.gz
Dewpoint
68 68 68 67 66 67 68 68 68 70 70 70 70 70 70 71 70 71 70 69 69 70
69 68 67 68 68 68 68 68 68 69 70 70 70 70 69 70 69 70 69 69 70 69
69 69 68 68 68 69 68 69 69 69 70 70 70 70 70 69 69 69 69 69 70 69
69 69 69 68 67 69 69 70 70 70 70 70 70 70 70 70 70 69 69 69 69 69
68 70 69 68 69 69 69 70 70 70 69 69 70 69 70 70 71 70 69 69 68 68
69 69 69 69 70 69 68 68 70 70 69 68 69 70 69 69 69 70 69 69 69 69
69 69 69 69 69 69 69 68 68 70 70 69 69 69 70 70 70 70 70 71 71 71
67 68 69 69 69 70 70 69 69 70 70 70 70 70 70 71 71 70 70 71 71 71
64 65 67 68 69 69 70 70 70 70 70 70 71 68 68 70 71 71 71 70 69 71
66 64 64 67 68 69 69 69 69 70 69 70 70 66 66 67 70 70 69 69 70 70
66 65 65 66 67 68 68 69 69 69 69 69 69 64 64 65 69 69 69 69 70 69
66 65 66 66 67 66 67 67 67 68 69 68 67 59 61 65 68 68 68 69 66 64
66 66 67 67 67 67 67 66 67 66 65 63 62 59 59 63 66 66 66 61 60 59
66 66 65 65 65 65 65 64 64 62 61 60 60 60 58 59 65 66 65 64 60 59